Time,TemperatureF,DewpointF,PressureIn,WindDirection,WindDirectionDegrees,WindSpeedMPH,WindSpeedGustMPH,Humidity,HourlyPrecipIn,Conditions,Clouds,dailyrainin,SoftwareType,DateUTC
2013-05-09 00:03:00,63.0,53.0,29.96,ESE,113,0.0,2.0,71,0.00,,,0.00,,2013-05-09 04:03:00,
2013-05-09 00:12:00,63.0,53.0,29.96,ESE,113,0.0,2.0,71,0.00,,,0.00,,2013-05-09 04:12:00,
2013-05-09 00:23:00,62.0,53.0,29.95,ESE,113,0.0,1.0,72,0.00,,,0.00,,2013-05-09 04:23:00,
2013-05-09 00:33:00,62.0,54.0,29.95,ESE,114,0.0,2.0,74,0.00,,,0.00,,2013-05-09 04:33:00,
2013-05-09 00:43:00,62.0,54.0,29.95,ESE,114,0.0,2.0,74,0.00,,,0.00,,2013-05-09 04:43:00,
2013-05-09 00:53:00,62.0,54.0,29.95,ESE,114,0.0,1.0,74,0.00,,,0.00,,2013-05-09 04:53:00,
2013-05-09 01:02:00,60.0,53.0,29.96,ESE,114,0.0,0.0,77,0.00,,,0.00,,2013-05-09 05:02:00,
2013-05-09 01:12:00,60.0,53.0,29.96,ESE,114,0.0,0.0,77,0.00,,,0.00,,2013-05-09 05:12:00,
2013-05-09 01:22:00,59.0,53.0,29.95,ESE,114,0.0,0.0,80,0.00,,,0.00,,2013-05-09 05:22:00,
2013-05-09 01:32:00,58.0,53.0,29.95,ESE,114,0.0,0.0,83,0.00,,,0.00,,2013-05-09 05:32:00,
2013-05-09 01:42:00,58.0,53.0,29.95,ESE,114,0.0,0.0,83,0.00,,,0.00,,2013-05-09 05:42:00,
2013-05-09 01:52:00,57.0,52.0,29.95,ESE,114,0.0,1.0,84,0.00,,,0.00,,2013-05-09 05:52:00,
2013-05-09 02:02:00,57.0,53.0,29.94,ESE,114,0.0,1.0,85,0.00,,,0.00,,2013-05-09 06:02:00,
2013-05-09 02:12:00,57.0,53.0,29.94,ESE,114,0.0,1.0,85,0.00,,,0.00,,2013-05-09 06:12:00,
2013-05-09 02:21:00,58.0,53.0,29.94,ESE,114,0.0,1.0,84,0.00,,,0.00,,2013-05-09 06:21:00,
2013-05-09 02:32:00,58.0,53.0,29.93,ESE,114,0.0,1.0,84,0.00,,,0.00,,2013-05-09 06:32:00,
2013-05-09 02:42:00,58.0,53.0,29.93,ESE,114,0.0,1.0,84,0.00,,,0.00,,2013-05-09 06:42:00,
2013-05-09 02:52:00,58.0,53.0,29.93,South,178,0.0,1.0,84,0.00,,,0.00,,2013-05-09 06:52:00,
2013-05-09 03:01:00,58.0,53.0,29.93,South,171,0.0,2.0,84,0.00,,,0.00,,2013-05-09 07:01:00,
2013-05-09 03:12:00,58.0,53.0,29.93,South,171,0.0,2.0,84,0.00,,,0.00,,2013-05-09 07:12:00,
2013-05-09 03:21:00,58.0,53.0,29.93,South,186,0.0,2.0,84,0.00,,,0.00,,2013-05-09 07:21:00,
2013-05-09 03:32:00,58.0,54.0,29.93,SSW,196,0.0,2.0,85,0.00,,,0.00,,2013-05-09 07:32:00,
2013-05-09 03:42:00,58.0,54.0,29.93,SSW,196,0.0,2.0,85,0.00,,,0.00,,2013-05-09 07:42:00,
2013-05-09 03:52:00,58.0,53.0,29.92,SW,223,0.0,1.0,84,0.00,,,0.00,,2013-05-09 07:52:00,
2013-05-09 04:02:00,58.0,53.0,29.93,WSW,238,0.0,4.0,84,0.00,,,0.00,,2013-05-09 08:02:00,
2013-05-09 04:11:00,58.0,53.0,29.93,WSW,238,0.0,4.0,84,0.00,,,0.00,,2013-05-09 08:11:00,
2013-05-09 04:21:00,58.0,53.0,29.93,SW,223,0.0,3.0,83,0.00,,,0.00,,2013-05-09 08:21:00,
2013-05-09 04:31:00,58.0,53.0,29.93,SW,224,0.0,1.0,82,0.00,,,0.00,,2013-05-09 08:31:00,
2013-05-09 04:42:00,58.0,53.0,29.93,SW,224,0.0,1.0,82,0.00,,,0.00,,2013-05-09 08:42:00,
2013-05-09 04:52:00,58.0,53.0,29.93,SW,225,0.0,1.0,83,0.00,,,0.00,,2013-05-09 08:52:00,
2013-05-09 05:02:00,58.0,53.0,29.93,SW,225,0.0,2.0,82,0.00,,,0.00,,2013-05-09 09:02:00,
2013-05-09 05:11:00,58.0,53.0,29.93,SW,225,0.0,2.0,82,0.00,,,0.00,,2013-05-09 09:11:00,
2013-05-09 05:21:00,58.0,53.0,29.92,SW,225,0.0,1.0,83,0.00,,,0.00,,2013-05-09 09:21:00,
2013-05-09 05:32:00,58.0,53.0,29.93,SW,226,0.0,2.0,83,0.00,,,0.00,,2013-05-09 09:32:00,
2013-05-09 05:42:00,58.0,53.0,29.93,SW,226,0.0,2.0,83,0.00,,,0.00,,2013-05-09 09:42:00,
2013-05-09 05:53:00,57.0,52.0,29.93,SW,226,0.0,1.0,83,0.00,,,0.00,,2013-05-09 09:53:00,
2013-05-09 06:02:00,57.0,53.0,29.93,SW,226,0.0,2.0,85,0.00,,,0.00,,2013-05-09 10:02:00,
2013-05-09 06:12:00,57.0,53.0,29.93,SW,226,0.0,2.0,85,0.00,,,0.00,,2013-05-09 10:12:00,
2013-05-09 06:22:00,57.0,52.0,29.93,SW,227,0.0,3.0,84,0.00,,,0.00,,2013-05-09 10:22:00,
2013-05-09 06:33:00,57.0,52.0,29.93,SW,227,0.0,1.0,84,0.00,,,0.00,,2013-05-09 10:33:00,
2013-05-09 06:42:00,57.0,52.0,29.93,SW,227,0.0,1.0,84,0.00,,,0.00,,2013-05-09 10:42:00,
2013-05-09 06:52:00,57.0,52.0,29.94,SW,227,0.0,2.0,84,0.00,,,0.00,,2013-05-09 10:52:00,
2013-05-09 07:02:00,57.0,52.0,29.94,SW,230,0.0,3.0,84,0.00,,,0.00,,2013-05-09 11:02:00,
2013-05-09 07:12:00,57.0,52.0,29.94,SW,230,0.0,3.0,84,0.00,,,0.00,,2013-05-09 11:12:00,
2013-05-09 07:22:00,57.0,53.0,29.94,SW,229,0.0,1.0,85,0.00,,,0.00,,2013-05-09 11:22:00,
2013-05-09 07:32:00,58.0,54.0,29.94,SW,217,0.0,3.0,85,0.00,,,0.00,,2013-05-09 11:32:00,
2013-05-09 07:41:00,58.0,54.0,29.94,SW,217,0.0,3.0,85,0.00,,,0.00,,2013-05-09 11:41:00,
2013-05-09 07:52:00,58.0,54.0,29.94,SW,226,0.0,2.0,85,0.00,,,0.00,,2013-05-09 11:52:00,
2013-05-09 08:01:00,58.0,54.0,29.94,SW,226,0.0,2.0,85,0.00,,,0.00,,2013-05-09 12:01:00,
2013-05-09 08:11:00,58.0,54.0,29.94,SW,226,0.0,2.0,85,0.00,,,0.00,,2013-05-09 12:11:00,
2013-05-09 08:22:00,59.0,54.0,29.95,SW,229,0.0,3.0,84,0.00,,,0.00,,2013-05-09 12:22:00,
2013-05-09 08:31:00,59.0,54.0,29.95,SW,229,0.0,2.0,84,0.00,,,0.00,,2013-05-09 12:31:00,
2013-05-09 08:42:00,59.0,54.0,29.95,SW,229,0.0,2.0,84,0.00,,,0.00,,2013-05-09 12:42:00,
2013-05-09 08:52:00,61.0,56.0,29.95,SW,233,0.0,4.0,83,0.00,,,0.00,,2013-05-09 12:52:00,
2013-05-09 09:01:00,63.0,56.0,29.95,SW,223,2.0,4.0,78,0.00,,,0.00,,2013-05-09 13:01:00,
2013-05-09 09:12:00,63.0,56.0,29.95,SW,223,2.0,4.0,78,0.00,,,0.00,,2013-05-09 13:12:00,
2013-05-09 09:21:00,64.0,56.0,29.96,WSW,253,1.0,4.0,76,0.00,,,0.00,,2013-05-09 13:21:00,
2013-05-09 09:32:00,65.0,57.0,29.96,WSW,252,0.0,2.0,75,0.00,,,0.00,,2013-05-09 13:32:00,
2013-05-09 09:42:00,65.0,57.0,29.96,WSW,252,0.0,2.0,75,0.00,,,0.00,,2013-05-09 13:42:00,
2013-05-09 09:52:00,66.0,57.0,29.96,WSW,245,0.0,3.0,73,0.00,,,0.00,,2013-05-09 13:52:00,
2013-05-09 10:01:00,68.0,58.0,29.96,SW,232,0.0,3.0,71,0.00,,,0.00,,2013-05-09 14:01:00,
2013-05-09 10:11:00,68.0,58.0,29.96,SW,232,0.0,3.0,71,0.00,,,0.00,,2013-05-09 14:11:00,
2013-05-09 10:21:00,69.0,57.0,29.96,West,259,2.0,4.0,66,0.00,,,0.00,,2013-05-09 14:21:00,
2013-05-09 10:32:00,70.0,56.0,29.95,SW,225,1.0,4.0,61,0.00,,,0.00,,2013-05-09 14:32:00,
2013-05-09 10:41:00,70.0,56.0,29.95,SW,225,1.0,4.0,61,0.00,,,0.00,,2013-05-09 14:41:00,
2013-05-09 10:52:00,72.0,57.0,29.96,WSW,252,1.0,5.0,59,0.00,,,0.00,,2013-05-09 14:52:00,
2013-05-09 11:01:00,73.0,56.0,29.96,WSW,238,1.0,5.0,56,0.00,,,0.00,,2013-05-09 15:01:00,
2013-05-09 11:11:00,73.0,56.0,29.96,WSW,238,1.0,5.0,56,0.00,,,0.00,,2013-05-09 15:11:00,
2013-05-09 11:22:00,75.0,56.0,29.96,West,279,3.0,6.0,52,0.00,,,0.00,,2013-05-09 15:22:00,
2013-05-09 11:33:00,75.0,57.0,29.96,SW,231,1.0,7.0,53,0.00,,,0.00,,2013-05-09 15:33:00,
2013-05-09 11:43:00,75.0,57.0,29.96,SW,231,1.0,7.0,53,0.00,,,0.00,,2013-05-09 15:43:00,
2013-05-09 11:53:00,76.0,54.0,29.96,West,265,3.0,8.0,47,0.00,,,0.00,,2013-05-09 15:53:00,
2013-05-09 12:03:00,78.0,56.0,29.96,WSW,258,2.0,6.0,46,0.00,,,0.00,,2013-05-09 16:03:00,
2013-05-09 12:12:00,78.0,56.0,29.96,WSW,258,2.0,6.0,46,0.00,,,0.00,,2013-05-09 16:12:00,
2013-05-09 12:22:00,78.0,54.0,29.96,WSW,247,3.0,9.0,43,0.00,,,0.00,,2013-05-09 16:22:00,
2013-05-09 12:33:00,78.0,54.0,29.96,WSW,251,2.0,8.0,43,0.00,,,0.00,,2013-05-09 16:33:00,
2013-05-09 12:42:00,78.0,54.0,29.96,WSW,251,2.0,8.0,43,0.00,,,0.00,,2013-05-09 16:42:00,
2013-05-09 12:53:00,78.0,54.0,29.95,WSW,257,2.0,6.0,44,0.00,,,0.00,,2013-05-09 16:53:00,
2013-05-09 13:02:00,78.0,52.0,29.95,WSW,252,2.0,6.0,41,0.00,,,0.00,,2013-05-09 17:02:00,
2013-05-09 13:12:00,78.0,52.0,29.95,WSW,252,2.0,6.0,41,0.00,,,0.00,,2013-05-09 17:12:00,
2013-05-09 13:21:00,78.0,53.0,29.95,West,278,3.0,8.0,42,0.00,,,0.00,,2013-05-09 17:21:00,
2013-05-09 13:32:00,79.0,53.0,29.95,SW,230,3.0,7.0,41,0.00,,,0.00,,2013-05-09 17:32:00,
2013-05-09 13:42:00,79.0,53.0,29.95,SW,230,3.0,7.0,41,0.00,,,0.00,,2013-05-09 17:42:00,
2013-05-09 13:55:00,78.0,52.0,29.95,WSW,254,3.0,9.0,40,0.00,,,0.00,,2013-05-09 17:55:00,
2013-05-09 14:01:00,78.0,53.0,29.94,SSW,208,1.0,6.0,42,0.00,,,0.00,,2013-05-09 18:01:00,
2013-05-09 14:12:00,78.0,53.0,29.94,SSW,208,1.0,6.0,42,0.00,,,0.00,,2013-05-09 18:12:00,
2013-05-09 14:21:00,78.0,53.0,29.95,West,275,3.0,8.0,42,0.00,,,0.00,,2013-05-09 18:21:00,
2013-05-09 14:31:00,76.0,52.0,29.96,WNW,296,5.0,12.0,44,0.00,,,0.00,,2013-05-09 18:31:00,
2013-05-09 14:42:00,76.0,52.0,29.96,WNW,296,5.0,12.0,44,0.00,,,0.00,,2013-05-09 18:42:00,
2013-05-09 14:52:00,69.0,58.0,29.96,NW,319,4.0,12.0,68,0.00,,,0.00,,2013-05-09 18:52:00,
2013-05-09 15:01:00,67.0,58.0,29.96,NW,323,5.0,17.0,72,0.00,,,0.00,,2013-05-09 19:01:00,
2013-05-09 15:12:00,67.0,58.0,29.96,NW,323,5.0,17.0,72,0.00,,,0.00,,2013-05-09 19:12:00,
2013-05-09 15:21:00,65.0,57.0,29.95,SW,234,2.0,11.0,76,0.00,,,0.00,,2013-05-09 19:21:00,
2013-05-09 15:31:00,65.0,58.0,29.93,NW,326,4.0,8.0,77,0.00,,,0.00,,2013-05-09 19:31:00,
2013-05-09 15:41:00,65.0,58.0,29.93,NW,326,4.0,8.0,77,0.00,,,0.00,,2013-05-09 19:41:00,
2013-05-09 15:52:00,64.0,57.0,29.93,WNW,298,3.0,7.0,78,0.00,,,0.00,,2013-05-09 19:52:00,
2013-05-09 16:01:00,65.0,59.0,29.92,West,273,0.0,3.0,80,0.00,,,0.00,,2013-05-09 20:01:00,
2013-05-09 16:11:00,65.0,59.0,29.92,West,273,0.0,3.0,80,0.00,,,0.00,,2013-05-09 20:11:00,
2013-05-09 16:22:00,65.0,59.0,29.92,West,273,0.0,3.0,80,0.00,,,0.00,,2013-05-09 20:22:00,
2013-05-09 16:32:00,65.0,59.0,29.92,West,273,0.0,3.0,80,0.00,,,0.00,,2013-05-09 20:32:00,
2013-05-09 16:42:00,68.0,59.0,29.90,NW,317,0.0,1.0,72,0.00,,,0.00,,2013-05-09 20:42:00,
2013-05-09 16:52:00,68.0,59.0,29.90,NW,317,0.0,1.0,72,0.00,,,0.00,,2013-05-09 20:52:00,
2013-05-09 17:02:00,68.0,58.0,29.90,NW,317,0.0,0.0,71,0.00,,,0.00,,2013-05-09 21:02:00,
2013-05-09 17:12:00,68.0,58.0,29.90,NW,317,0.0,0.0,71,0.00,,,0.00,,2013-05-09 21:12:00,
2013-05-09 17:22:00,68.0,59.0,29.91,NW,317,0.0,1.0,72,0.00,,,0.00,,2013-05-09 21:22:00,
2013-05-09 17:32:00,68.0,59.0,29.91,NW,309,1.0,3.0,73,0.00,,,0.00,,2013-05-09 21:32:00,
2013-05-09 17:43:00,67.0,59.0,29.92,West,265,3.0,9.0,75,0.00,,,0.00,,2013-05-09 21:43:00,
2013-05-09 17:53:00,67.0,59.0,29.92,West,265,3.0,9.0,75,0.00,,,0.00,,2013-05-09 21:53:00,
2013-05-09 18:03:00,66.0,59.0,29.92,SW,227,3.0,8.0,79,0.00,,,0.00,,2013-05-09 22:03:00,
2013-05-09 18:12:00,65.0,59.0,29.95,NNW,342,4.0,10.0,80,0.01,,,0.01,,2013-05-09 22:12:00,
2013-05-09 18:23:00,65.0,59.0,29.95,NNW,342,4.0,10.0,80,0.01,,,0.01,,2013-05-09 22:23:00,
2013-05-09 18:33:00,62.0,56.0,29.95,SW,236,5.0,9.0,82,0.03,,,0.03,,2013-05-09 22:33:00,
2013-05-09 18:42:00,60.0,56.0,29.93,SE,137,0.0,7.0,87,0.12,,,0.12,,2013-05-09 22:42:00,
2013-05-09 18:52:00,60.0,56.0,29.93,SE,137,0.0,7.0,87,0.12,,,0.12,,2013-05-09 22:52:00,
2013-05-09 19:02:00,60.0,57.0,29.91,SE,128,1.0,3.0,89,0.19,,,0.19,,2013-05-09 23:02:00,
2013-05-09 19:12:00,60.0,57.0,29.91,SE,128,1.0,3.0,89,0.19,,,0.19,,2013-05-09 23:12:00,
2013-05-09 19:21:00,60.0,57.0,29.89,East,92,2.0,5.0,90,0.19,,,0.20,,2013-05-09 23:21:00,
2013-05-09 19:32:00,60.0,57.0,29.89,ESE,113,0.0,5.0,91,0.17,,,0.20,,2013-05-09 23:32:00,
2013-05-09 19:42:00,60.0,57.0,29.89,ESE,113,0.0,5.0,91,0.17,,,0.20,,2013-05-09 23:42:00,
2013-05-09 19:52:00,60.0,57.0,29.88,ESE,109,0.0,2.0,91,0.08,,,0.20,,2013-05-09 23:52:00,
2013-05-09 20:01:00,60.0,57.0,29.88,ESE,111,1.0,5.0,91,0.01,,,0.20,,2013-05-10 00:01:00,
2013-05-09 20:11:00,60.0,57.0,29.88,ESE,109,0.0,3.0,91,0.00,,,0.20,,2013-05-10 00:11:00,
2013-05-09 20:22:00,60.0,57.0,29.88,ESE,109,0.0,3.0,91,0.00,,,0.20,,2013-05-10 00:22:00,
2013-05-09 20:32:00,60.0,57.0,29.88,ESE,111,1.0,6.0,91,0.00,,,0.20,,2013-05-10 00:32:00,
2013-05-09 20:42:00,60.0,57.0,29.88,ESE,111,1.0,6.0,91,0.00,,,0.20,,2013-05-10 00:42:00,
2013-05-09 20:52:00,60.0,57.0,29.88,ESE,111,1.0,6.0,91,0.00,,,0.20,,2013-05-10 00:52:00,
2013-05-09 21:01:00,60.0,57.0,29.86,ESE,112,0.0,3.0,91,0.00,,,0.20,,2013-05-10 01:01:00,
2013-05-09 21:11:00,60.0,57.0,29.86,ESE,112,0.0,3.0,91,0.00,,,0.20,,2013-05-10 01:11:00,
2013-05-09 21:21:00,60.0,57.0,29.86,ESE,112,0.0,3.0,91,0.00,,,0.20,,2013-05-10 01:21:00,
2013-05-09 21:32:00,60.0,58.0,29.88,ESE,113,0.0,4.0,92,0.00,,,0.20,,2013-05-10 01:32:00,
2013-05-09 21:42:00,60.0,58.0,29.88,ESE,113,0.0,4.0,92,0.00,,,0.20,,2013-05-10 01:42:00,
2013-05-09 21:52:00,60.0,58.0,29.88,ESE,113,0.0,4.0,92,0.00,,,0.20,,2013-05-10 01:52:00,
2013-05-09 22:01:00,60.0,57.0,29.89,ESE,114,0.0,3.0,91,0.05,,,0.25,,2013-05-10 02:01:00,
2013-05-09 22:11:00,60.0,57.0,29.89,ESE,114,0.0,3.0,91,0.05,,,0.25,,2013-05-10 02:11:00,
2013-05-09 22:21:00,60.0,57.0,29.89,ESE,114,0.0,3.0,91,0.05,,,0.25,,2013-05-10 02:21:00,
2013-05-09 22:32:00,60.0,57.0,29.89,SSE,159,0.0,0.0,91,0.16,,,0.36,,2013-05-10 02:32:00,
2013-05-09 22:42:00,60.0,58.0,29.89,SE,124,0.0,2.0,92,0.21,,,0.43,,2013-05-10 02:42:00,
2013-05-09 22:52:00,60.0,58.0,29.89,SE,124,0.0,2.0,92,0.21,,,0.43,,2013-05-10 02:52:00,
2013-05-09 23:01:00,60.0,58.0,29.88,SE,124,0.0,1.0,92,0.33,,,0.59,,2013-05-10 03:01:00,
2013-05-09 23:11:00,60.0,58.0,29.88,SE,124,0.0,1.0,92,0.33,,,0.59,,2013-05-10 03:11:00,
2013-05-09 23:21:00,60.0,58.0,29.86,SE,128,2.0,10.0,93,0.40,,,0.70,,2013-05-10 03:21:00,
2013-05-09 23:33:00,59.0,57.0,29.85,ESE,111,4.0,7.0,93,0.39,,,0.75,,2013-05-10 03:33:00,
2013-05-09 23:43:00,59.0,57.0,29.85,ESE,111,4.0,7.0,93,0.39,,,0.75,,2013-05-10 03:43:00,
2013-05-09 23:53:00,59.0,57.0,29.86,ESE,117,3.0,7.0,93,0.41,,,0.84,,2013-05-10 03:53:00,